Weather History for Hamilton Airport, ON

Change the Weather History Date:

Friday, March 1, 2013

  Actual Average Record
Temperature  
Mean Temperature 26 °F -  
Max Temperature 29 °F 39 °F 53 °F (1997)
Min Temperature 23 °F 24 °F 6 °F (2014)
Degree Days  
Heating Degree Days 39    
Moisture  
Dew Point 20 °F    
Average Humidity 76    
Maximum Humidity 86    
Minimum Humidity 58    
Precipitation  
Precipitation 0.00 in 0.10 in - ()
Sea Level Pressure  
Sea Level Pressure 29.92 in    
Wind  
Wind Speed 11 mph ()    
Max Wind Speed 16 mph    
Max Gust Speed 23 mph    
Visibility 14.9 miles    
Events Snow    
Averages and records for this station are not official NWS values.
T = Trace of Precipitation, MM = Missing Value Source: Averaged Metar Reports

Daily Weather History Graph

Daily Weather History Graph

Search for Another Location

Airport:

Trip Planner

Search our weather history database for the weather conditions in past years. The results will help you decide how hot, cold, wet, or windy it might be!

Date:

Astronomy

Mar. 01, 2013 Rise Set
Actual Time 6:55 AM EST 6:09 PM EST
Civil Twilight 6:26 AM EST 6:37 PM EST
Nautical Twilight 5:54 AM EST 7:10 PM EST
Astronomical Twilight 5:21 AM EST 7:43 PM EST
Moon 10:49 PM EST (3/1) 8:33 AM EST (3/1)
Length of Visible Light 12h 10m
Length of Day
11h 13m
Waning Gibbous, 83% of the Moon is Illuminated
Mar 1
Waning Gibbous
Mar 4
Last Quarter
Mar 11
New
Mar 19
First Quarter
Mar 27
Full

Hourly Weather History & Observations

Time (EST) Temp. Windchill Dew Point Humidity Pressure Visibility Wind Dir Wind Speed Gust Speed Precip Events Conditions
12:00 AM 30.2 °F 19.8 °F 24.8 °F 80% 29.81 in 15.0 mi NNW 13.8 mph - N/A   Mostly Cloudy
12:49 AM 30.2 °F 19.8 °F 24.8 °F 80% 29.83 in 12.0 mi NNW 13.8 mph - N/A Snow Light Snow Showers
1:00 AM 29 °F - 24 °F 72% 29.83 in 15 mi North 16.1 mph - - Snow Light Snow Showers
1:00 AM 28.4 °F 17.0 °F 23.0 °F 80% 29.83 in 15.0 mi North 15.0 mph 23.0 mph N/A Snow Light Snow Showers
2:00 AM 28.4 °F 17.0 °F 21.2 °F 74% 29.85 in 15.0 mi NNW 15.0 mph - N/A Snow Light Snow Showers
3:00 AM 26.6 °F 16.2 °F 21.2 °F 80% 29.86 in 15.0 mi NNW 11.5 mph - N/A Snow Light Snow Showers
3:44 AM 26.6 °F 15.7 °F 21.2 °F 80% 29.86 in 15.0 mi NNW 12.7 mph - N/A   Overcast
4:00 AM 26.6 °F 15.7 °F 21.2 °F 80% 29.87 in 15.0 mi NNW 12.7 mph - N/A   Overcast
5:00 AM 26.6 °F 17.5 °F 21.2 °F 80% 29.88 in 15.0 mi NW 9.2 mph - N/A   Overcast
6:00 AM 26.6 °F 18.2 °F 21.2 °F 80% 29.89 in 15.0 mi NNW 8.1 mph - N/A   Overcast
7:00 AM 26 °F - 21 °F 76% 29.90 in 15 mi NNW 10.4 mph - -   Partly Cloudy
8:00 AM 24.8 °F 11.9 °F 21.2 °F 86% 29.92 in 15.0 mi NNW 16.1 mph - N/A   Overcast
9:00 AM 24.8 °F 12.9 °F 19.4 °F 80% 29.94 in 15.0 mi NNW 13.8 mph - N/A   Overcast
10:00 AM 24.8 °F 14.0 °F 19.4 °F 80% 29.95 in 15.0 mi NNW 11.5 mph - N/A   Overcast
11:00 AM 24.8 °F 16.1 °F 19.4 °F 80% 29.96 in 15.0 mi NW 8.1 mph - N/A   Overcast
12:00 PM 26.6 °F 16.2 °F 19.4 °F 74% 29.96 in 15.0 mi NW 11.5 mph - N/A   Overcast
1:00 PM 28 °F - 19 °F 58% 29.95 in 15 mi NNW 9.2 mph - -   Mostly Cloudy
1:00 PM 28.4 °F 19.1 °F 19.4 °F 69% 29.95 in 15.0 mi NNW 10.4 mph - N/A   Mostly Cloudy
2:00 PM 28.4 °F 19.1 °F 19.4 °F 69% 29.94 in 15.0 mi NW 10.4 mph - N/A   Mostly Cloudy
3:00 PM 28.4 °F 18.5 °F 19.4 °F 69% 29.94 in 15.0 mi NNW 11.5 mph - N/A   Mostly Cloudy
4:00 PM 28.4 °F 19.1 °F 19.4 °F 69% 29.95 in 15.0 mi NW 10.4 mph - N/A   Overcast
5:00 PM 26.6 °F 15.7 °F 19.4 °F 74% 29.95 in 15.0 mi NW 12.7 mph - N/A   Mostly Cloudy
6:00 PM 26.6 °F 16.8 °F 19.4 °F 74% 29.97 in 15.0 mi NW 10.4 mph 17.3 mph N/A   Mostly Cloudy
7:00 PM 24 °F - 18 °F 70% 29.99 in 15 mi NW 12.7 mph - -   Overcast
7:00 PM 24.8 °F 13.4 °F 17.6 °F 74% 29.99 in 15.0 mi NW 12.7 mph - N/A   Overcast
8:00 PM 23.0 °F 11.7 °F 17.6 °F 80% 30.00 in 15.0 mi North 11.5 mph - N/A   Overcast
9:00 PM 23.0 °F 15.8 °F 17.6 °F 80% 30.01 in 15.0 mi North 5.8 mph - N/A   Overcast
10:00 PM 24.8 °F 17.9 °F 17.6 °F 74% 30.01 in 15.0 mi NNW 5.8 mph - N/A   Overcast
11:00 PM 23.0 °F 13.9 °F 17.6 °F 80% 30.01 in 15.0 mi North 8.1 mph - N/A Snow Light Snow Showers